Terminal Aerodrome Forecast
Issued by NWS Wilmington, OH

Current Version | Previous Version | Graphics & Text | Print | Product List | Glossary On
Versions: 1 2 3 4 5 6 7 8 9 10 11 12 13 14 15 16 17 18 19 20 21 22 23
888
FTUS41 KILN 190906 AAB
TAFILN
TAF AMD
KILN 190906Z 1909/2006 23005KT P6SM OVC004
      TEMPO 1909/1912 5SM BR OVC008
     FM191200 16003KT P6SM OVC250
     FM191500 13005KT P6SM OVC150
     FM192200 11007KT P6SM OVC070
     FM200200 10008KT 4SM -RA OVC015=

USA.gov is the U.S. government's official web portal to all federal, state and local government web resources and services.